Live Position
Loading 3D Globe...
About Lemur-2 Embrionovis
Group: 3 satellites
Description loading...
Upcoming Passes
Passes for default location (London). Set your location on the main map for personalized predictions.
Altitude History
Loading altitude history...
No altitude history available
Two-Line Element Set
1 56970U 23084AQ 26106.34246784 .00008551 00000-0 24658-3 0 9994
2 56970 97.6195 248.2786 0009585 168.2694 191.8774 15.35930986158185
Epoch: Apr 16, 2026 •
Age: 27 hours
Current Status
Altitude 466.9 km
Velocity 7.63 km/s
Sub-Earth Point 33.69°N,
125.45°W
Launch Date Jun 12, 2023
Age 2.8 years
Type other
Technical Details
Classification Payload
Mass 10.00 kg
Dry Mass 10.00 kg
Total Mass 10.00 kg
Length 0.30 m
Diameter 0.20 m
Span 0.30 m
Shape Box
Manufacturer SPIREG
Bus Type Cubesat 6U
Phase Status In Orbit
Owner/State SPIRE/ORORA/US
Most Searched
Loading...